Soldotna, AK

2:40 PM AKDT on September 24, 2017 (GMT -0800)
Soldotna

Weather History for PASX - December, 2012

Change the Weather History Date:

Friday, December 21, 2012

  Actual Average Record
Temperature  
Mean Temperature -14 °F -  
Max Temperature -7 °F 22 °F 41 °F (1985)
Min Temperature -20 °F 5 °F -32 °F (1965)
Degree Days  
Heating Degree Days 78    
Moisture  
Dew Point -20 °F    
Average Humidity 82    
Maximum Humidity 100    
Minimum Humidity 58    
Precipitation  
Precipitation 0.00 in - - ()
Sea Level Pressure  
Sea Level Pressure 30.05 in    
Wind  
Wind Speed 6 mph (ENE)    
Max Wind Speed 9 mph    
Max Gust Speed -    
Visibility 10 miles    
Events      
Averages and records for this station are not official NWS values.
T = Trace of Precipitation, MM = Missing Value Source: NWS Daily Summary

Daily Weather History Graph

Daily Weather History Graph

Search for Another Location

Airport or City:

Trip Planner

Search our weather history database for the weather conditions in past years. The results will help you decide how hot, cold, wet, or windy it might be!

Date:

Astronomy

Dec. 21, 2012 Rise Set
Actual Time 10:11 AM AKST 3:54 PM AKST
Civil Twilight 9:11 AM AKST 4:53 PM AKST
Nautical Twilight 8:13 AM AKST 5:51 PM AKST
Astronomical Twilight 7:21 AM AKST 6:43 PM AKST
Moon 12:53 PM AKST (12/21) 2:55 AM AKST (12/21)
Length of Visible Light 7h 41m
Length of Day
5h 42m
Waxing Gibbous, 66% of the Moon is Illuminated
Dec 21
Waxing Gibbous
Dec 28
Full
Jan 4
Last Quarter
Jan 11
New
Jan 18
First Quarter

Hourly Weather History & Observations

Time (AKST) Temp. Windchill Dew Point Humidity Pressure Visibility Wind Dir Wind Speed Gust Speed Precip Events Conditions
12:16 AM -11.2 °F -26.4 °F -16.6 °F 77% 30.10 in 10.0 mi East 6.9 mph - N/A   Clear
12:36 AM -11.2 °F -26.4 °F -16.6 °F 77% 30.10 in 10.0 mi East 6.9 mph - N/A   Clear
12:56 AM -13.0 °F -27.0 °F -16.6 °F 84% 30.11 in 10.0 mi ENE 5.8 mph - N/A   Clear
1:16 AM -14.8 °F -29.1 °F -20.2 °F 77% 30.10 in 10.0 mi ENE 5.8 mph - N/A   Clear
1:36 AM -13.0 °F -27.0 °F -13.0 °F 100% 30.11 in 10.0 mi East 5.8 mph - N/A   Clear
1:56 AM -13.0 °F -28.6 °F -18.4 °F 77% 30.11 in 10.0 mi East 6.9 mph - N/A   Clear
2:16 AM -14.8 °F -30.8 °F -14.8 °F 100% 30.11 in 10.0 mi East 6.9 mph - N/A   Clear
2:36 AM -13.0 °F -28.6 °F -18.4 °F 77% 30.11 in 10.0 mi ENE 6.9 mph - N/A   Clear
2:56 AM -13.0 °F -30.0 °F -14.8 °F 92% 30.10 in 10.0 mi ENE 8.1 mph - N/A   Clear
3:16 AM -13.0 °F -27.0 °F -20.2 °F 70% 30.11 in 10.0 mi ENE 5.8 mph - N/A   Clear
3:36 AM -13.0 °F -27.0 °F -16.6 °F 84% 30.10 in 10.0 mi ENE 5.8 mph - N/A   Clear
3:56 AM -14.8 °F -30.8 °F -18.4 °F 84% 30.10 in 10.0 mi East 6.9 mph - N/A   Clear
4:16 AM -14.8 °F -33.5 °F -16.6 °F 92% 30.10 in 10.0 mi East 9.2 mph - N/A   Clear
4:36 AM -14.8 °F -30.8 °F -16.6 °F 92% 30.10 in 10.0 mi East 6.9 mph - N/A   Clear
4:56 AM -14.8 °F -27.2 °F -22.0 °F 70% 30.10 in 10.0 mi ENE 4.6 mph - N/A   Clear
5:16 AM -14.8 °F -30.8 °F -18.4 °F 84% 30.10 in 10.0 mi ENE 6.9 mph - N/A   Clear
5:36 AM -16.6 °F -31.3 °F -20.2 °F 84% 30.10 in 10.0 mi East 5.8 mph - N/A   Clear
5:56 AM -16.6 °F -32.9 °F -16.6 °F 100% 30.10 in 10.0 mi ENE 6.9 mph - N/A   Clear
6:16 AM -16.6 °F -29.3 °F -20.2 °F 84% 30.09 in 10.0 mi East 4.6 mph - N/A   Clear
6:36 AM -16.6 °F -31.3 °F -23.8 °F 70% 30.09 in 10.0 mi East 5.8 mph - N/A   Clear
6:56 AM -18.4 °F -33.4 °F -18.4 °F 100% 30.10 in 10.0 mi ENE 5.8 mph - N/A   Clear
7:16 AM -18.4 °F -35.1 °F -27.4 °F 63% 30.09 in 10.0 mi ENE 6.9 mph - N/A   Clear
7:36 AM -18.4 °F -31.4 °F -20.2 °F 91% 30.09 in 10.0 mi ENE 4.6 mph - N/A   Clear
7:56 AM -18.4 °F -33.4 °F -23.8 °F 76% 30.09 in 10.0 mi ENE 5.8 mph - N/A   Clear
8:16 AM -16.6 °F -32.9 °F -22.0 °F 76% 30.09 in 10.0 mi ENE 6.9 mph - N/A   Clear
8:36 AM -16.6 °F -29.3 °F -22.0 °F 76% 30.08 in 10.0 mi ENE 4.6 mph - N/A   Clear
8:56 AM -16.6 °F -32.9 °F -20.2 °F 84% 30.08 in 10.0 mi ENE 6.9 mph - N/A   Clear
9:16 AM -18.4 °F -35.1 °F -23.8 °F 76% 30.08 in 10.0 mi East 6.9 mph - N/A   Clear
9:36 AM -18.4 °F -33.4 °F -22.0 °F 84% 30.09 in 10.0 mi ENE 5.8 mph - N/A   Clear
9:56 AM -18.4 °F -35.1 °F -25.6 °F 70% 30.08 in 10.0 mi East 6.9 mph - N/A   Clear
10:16 AM -20.2 °F -33.5 °F -23.8 °F 83% 30.08 in 10.0 mi ENE 4.6 mph - N/A   Clear
10:36 AM -18.4 °F -35.1 °F -29.2 °F 58% 30.08 in 10.0 mi East 6.9 mph - N/A   Clear
10:56 AM -18.4 °F -35.1 °F - N/A% 30.08 in 10.0 mi East 6.9 mph - N/A   Clear
11:16 AM -18.4 °F -33.4 °F -29.2 °F 58% 30.08 in 10.0 mi ENE 5.8 mph - N/A   Clear
11:36 AM -16.6 °F -31.3 °F -25.6 °F 64% 30.08 in 10.0 mi ENE 5.8 mph - N/A   Clear
11:56 AM -16.6 °F -32.9 °F -16.6 °F 100% 30.07 in 10.0 mi ENE 6.9 mph - N/A   Clear
12:16 PM -14.8 °F -30.8 °F -18.4 °F 84% 30.07 in 10.0 mi ENE 6.9 mph - N/A   Clear
12:36 PM -13.0 °F -28.6 °F -16.6 °F 84% 30.06 in 10.0 mi East 6.9 mph - N/A   Clear
12:56 PM -11.2 °F -26.4 °F -13.0 °F 92% 30.05 in 10.0 mi ENE 6.9 mph - N/A   Clear
1:16 PM -11.2 °F -27.8 °F -14.8 °F 84% 30.05 in 10.0 mi East 8.1 mph - N/A   Clear
1:36 PM -9.4 °F -24.3 °F -11.2 °F 92% 30.05 in 10.0 mi East 6.9 mph - N/A   Clear
1:56 PM -7.6 °F -18.8 °F -11.2 °F 84% 30.05 in 10.0 mi ENE 4.6 mph - N/A   Clear
2:16 PM -7.6 °F -18.8 °F -11.2 °F 84% 30.05 in 10.0 mi ENE 4.6 mph - N/A   Clear
2:36 PM -7.6 °F -22.1 °F -14.8 °F 71% 30.04 in 10.0 mi East 6.9 mph - N/A   Clear
2:56 PM -9.4 °F -20.9 °F -13.0 °F 84% 30.03 in 10.0 mi East 4.6 mph - N/A   Clear
3:16 PM -11.2 °F -20.6 °F -16.6 °F 77% 30.03 in 10.0 mi East 3.5 mph - N/A   Clear
3:36 PM -11.2 °F -23.0 °F -14.8 °F 84% 30.03 in 10.0 mi East 4.6 mph - N/A   Clear
3:56 PM -11.2 °F -24.8 °F -13.0 °F 92% 30.02 in 10.0 mi East 5.8 mph - N/A   Clear
4:16 PM -11.2 °F -23.0 °F -16.6 °F 77% 30.02 in 10.0 mi East 4.6 mph - N/A   Clear
4:36 PM -13.0 °F -22.7 °F -16.6 °F 84% 30.01 in 10.0 mi ENE 3.5 mph - N/A   Clear
4:56 PM -14.8 °F -29.1 °F -20.2 °F 77% 30.00 in 10.0 mi ENE 5.8 mph - N/A   Clear
5:16 PM -13.0 °F -25.1 °F -14.8 °F 92% 30.00 in 10.0 mi ENE 4.6 mph - N/A   Clear
5:36 PM -14.8 °F -24.8 °F -23.8 °F 64% 30.00 in 10.0 mi NE 3.5 mph - N/A   Clear
5:56 PM -16.6 °F -29.3 °F -22.0 °F 76% 30.00 in 10.0 mi NE 4.6 mph - N/A   Clear
6:16 PM -16.6 °F -26.8 °F -22.0 °F 76% 30.00 in 10.0 mi ENE 3.5 mph - N/A   Clear
6:36 PM -16.6 °F -26.8 °F -20.2 °F 84% 30.00 in 10.0 mi ENE 3.5 mph - N/A   Clear
6:56 PM -18.4 °F - -25.6 °F 70% 29.99 in 10.0 mi Calm Calm - N/A   Clear
7:16 PM -18.4 °F -31.4 °F -18.4 °F 100% 29.99 in 10.0 mi ENE 4.6 mph - N/A   Clear
7:36 PM -18.4 °F -31.4 °F -22.0 °F 84% 29.98 in 10.0 mi ENE 4.6 mph - N/A   Clear
7:56 PM -16.6 °F -31.3 °F -23.8 °F 70% 29.97 in 10.0 mi ENE 5.8 mph - N/A   Clear
8:16 PM -18.4 °F -33.4 °F -18.4 °F 100% 29.96 in 10.0 mi ENE 5.8 mph - N/A   Clear
8:36 PM -16.6 °F -29.3 °F -23.8 °F 70% 29.96 in 10.0 mi ENE 4.6 mph - N/A   Clear
8:56 PM -18.4 °F -28.9 °F -23.8 °F 76% 29.96 in 10.0 mi ENE 3.5 mph - N/A   Clear
9:16 PM -18.4 °F - -25.6 °F 70% 29.96 in 10.0 mi Calm Calm - N/A   Clear
9:36 PM -20.2 °F -33.5 °F -25.6 °F 76% 29.95 in 10.0 mi ENE 4.6 mph - N/A   Clear
9:56 PM -20.2 °F - -23.8 °F 83% 29.96 in 10.0 mi Calm Calm - N/A   Clear
10:16 PM -20.2 °F -30.9 °F -27.4 °F 69% 29.96 in 10.0 mi ENE 3.5 mph - N/A   Clear
10:36 PM -20.2 °F -37.3 °F -20.2 °F 100% 29.94 in 10.0 mi East 6.9 mph - N/A   Clear
10:56 PM -20.2 °F -35.5 °F -22.0 °F 91% 29.94 in 10.0 mi ENE 5.8 mph - N/A   Clear
11:16 PM -20.2 °F -35.5 °F -23.8 °F 83% 29.94 in 10.0 mi ENE 5.8 mph - N/A   Clear
11:36 PM -20.2 °F -35.5 °F -22.0 °F 91% 29.94 in 10.0 mi ENE 5.8 mph - N/A   Clear
11:56 PM -20.2 °F -33.5 °F -23.8 °F 83% 29.94 in 10.0 mi ENE 4.6 mph - N/A   Clear